Regional Weather Roundup
Issued by NWS Charleston, SC

Current Version | Previous Version | Graphics & Text | Print | Product List | Glossary On
Versions: 1 2 3 4 5 6 7 8 9 10 11 12 13 14 15 16 17 18 19 20 21 22 23 24 25 26 27 28 29 30 31 32 33 34 35 36 37 38 39 40 41 42 43 44 45 46 47 48 49 50
000 ASUS42 KCHS 210412 RWRCHS REGIONAL WEATHER ROUNDUP NATIONAL WEATHER SERVICE CHARLESTON SC 1100 PM EST FRI JAN 20 2017 NOTE: "FAIR" INDICATES FEW OR NO CLOUDS BELOW 12,000 FEET WITH NO SIGNIFICANT WEATHER AND/OR OBSTRUCTIONS TO VISIBILITY. NOT ALL STATIONS ARE QUALITY CONTROLLED. USE DATA WITH CAUTION... ESPECIALLY DEWPOINT OBSERVATIONS. SCZ027-030-031-034>040-042>050-210500- ...SOUTHEAST SOUTH CAROLINA... CITY SKY/WX TMP DP RH WIND PRES REMARKS N CHARLESTON MOCLDY 59 57 93 S6 29.92S WATERFRONT PRK N/A 62 61 96 VRB2 29.92S MOUNT PLEASANT FAIR 61 59 94 CALM 29.93S FOG JOHNS ISLAND CLOUDY 63 63 100 S6 29.93S PINOPOLIS N/A 64 63 94 VRB2 29.82S MONCKS CORNER FAIR 59 57 94 CALM 29.92S SUMMERVILLE FAIR N/A N/A N/A S3 29.93R BEAUFORT MCAS CLOUDY 65 62 90 CALM 29.93S BEAUFORT ARPT CLOUDY 64 63 94 S6 29.92F HILTON HEAD IS PTCLDY 66 64 94 S9 29.94S WALTERBORO CLOUDY 61 59 94 CALM 29.93S ALLENDALE MOCLDY 63 59 88 CALM 29.90S ...SOUTHERN MIDLANDS AND PEE DEE... CITY SKY/WX TMP DP RH WIND PRES REMARKS GEORGETOWN FAIR 59 59 100 SW5 29.93F KINGSTREE FAIR 61 57 88 SE3 29.91S ORANGEBURG PTCLDY 60 58 92 SW5 29.90S BARNWELL FAIR 61 61 100 CALM 29.91S AIKEN FAIR 59 55 88 CALM 29.94R MANNING FAIR 59 55 88 S3 29.91S COLUMBIA CLEAR 60 55 83 CALM 29.89R SUMTER PTCLDY 59 56 91 S3 29.88R FLORENCE PTCLDY 61 59 93 S6 29.90S MYRTLE BEACH PTCLDY 63 57 82 S5 29.94R N MYRTLE BEACH PTCLDY 54 54 100 CALM 29.92R $$ GAZ063-065-086>088-099>101-113>116-118-119-134>141-150-210500- ...SOUTHEAST GEORGIA... CITY SKY/WX TMP DP RH WIND PRES REMARKS SAVANNAH ARPT CLOUDY 66 62 87 S7 29.93S HUNTER AAF PTCLDY 65 65 100 CALM 29.91S FORT STEWART LGT RAIN 64 63 94 CALM 29.91R STATESBORO RAIN 64 32 30 S3 29.92R SYLVANIA CLOUDY N/A N/A N/A CALM 29.92S CLAXTON FAIR N/A N/A N/A CALM 29.92S HAZE ...CSRA...CENTRAL AND FAR SOUTHEAST GEORGIA... CITY SKY/WX TMP DP RH WIND PRES REMARKS THOMSON CLEAR 62 59 93 CALM 29.94S AUGUSTA-BUSH PTCLDY 62 57 83 CALM 29.89S AUGUSTA-DANIEL MOCLDY 65 57 75 CALM 29.90S SWAINSBORO LGT RAIN 66 63 88 S12 29.91S VIDALIA CLOUDY 66 66 100 S6 29.91F EASTMAN CLOUDY 66 66 100 S3 29.93R HAZLEHURST FAIR 69 69 100 SW7 29.91R ALMA CLOUDY 69 67 93 SW7 29.92S WAYCROSS CLOUDY 73 73 100 SW8 29.93S JESUP CLOUDY 68 64 88 CALM 29.93S BAXLEY CLOUDY 70 70 100 SW5 29.92R BRUNSWICK CLOUDY 72 66 83 SW6 29.94S SAINT SIMONS CLOUDY 70 63 78 SW7 29.93S $$ SCZ027-028-034-036>038-045-046-048>050-GAZ119-141-210500- ...LAKE AND SUPPLEMENTAL COASTAL OBSERVATIONS... STATION/POSITION TIME TEMP WIND PRES WAVE SWELL AIR SEA DIR/SP/G HT/PER HT/PER/DIR (UTC) (F) (DEG/KT/KT) (MB) (FT/S) (FT/S/D) WINYAH BAY 0245 61 220/ 4 1013.0 LAKE MURRAY 0320 60 CALM / 2 1011.9R ACE BASIN NERRS 0245 60 CALM 1013.0 FORT PULASKI 0348 63 58 220/ 3/ 4 1014.0R SAPELO ISLAND 0300 66 170/ 2 1013.0 $$ ANZ835-935-AMZ111-154-330-350-352-354-370-450-454-472-210500- ...C-MAN AND BUOY OBSERVATIONS... STATION/POSITION TIME TEMP WIND PRES WAVE SWELL AIR SEA DIR/SP/G HT/PER HT/PER/DIR (UTC) (F) (DEG/KT/KT) (MB) (FT/S) (FT/S/D) BUOY 41004 0250 69 69 230/ 8/ 10 1013.1 3/11 2/110/11 BUOY 41008 0250 64 61 160/ 6/ 6 1013.2 2/ 5 2/150/ 5 FOLLY BEACH CMAN 0400 60 220/ 6/ 7 1014.0S CAPERS NEARSHORE 0308 57 56 250/ 2/ 4 1013.5R FRIPP NEARSHORE 0308 61 59 200/ 4/ 8 1013.3R STATION/POSITION TIME TEMP WIND PRES WAVE SWELL AIR SEA DIR/SP/G HT/PER HT/PER/DIR (UTC) (F) (DEG/KT/KT) (MB) (FT/S) (FT/S/D) 5E ST. MARYS GA 0330 65 N/A 2/13 FRYING PAN BUOY 0350 69 71 260/ 12/ 16 1013.0R 3/ 5 2/ 70/14 BUOY 41025 0350 63 76 340/ 12/ 16 1012.0R 4/14 3/ 70/14 CAPE LOOKOUT NC 0400 58 10/ 9/ 14 1012.4R BUOY 41002 0250 72 70 200/ 10/ 12 1013.9 5/11 5/ 20/11 BUOY 41010 NOT AVBL ST AUGUSTINE FL 0400 68 63 220/ 4/ 5 1015.5R $$

USA.gov is the U.S. government's official web portal to all federal, state and local government web resources and services.